Le nostre stazioni meteo in Italia

Pubblicità
Il mio iltempo24.it
Luqa, Malta (16597): Temperatura & dewpoint: 21.02.2017 23:00:00 - 27.02.2017 23:00:00 (CET)Luqa, Malta (16597): velocità del vento: 21.02.2017 23:00:00 - 27.02.2017 23:00:00 (CET)Luqa, Malta (16597): direzione del vento: 21.02.2017 23:00:00 - 27.02.2017 23:00:00 (CET)Luqa, Malta (16597): reduced air pressure: 21.02.2017 23:00:00 - 27.02.2017 23:00:00 (CET)Luqa, Malta (16597): visibility: 21.02.2017 23:00:00 - 27.02.2017 23:00:00 (CET)
Data & Tempo tt [°C] td [°C] ff [km/h] ff [kn] dd ppp [hPa] vv [km]
27.02.2017 23:00:00 15,0 14,0 13 7 ENE - 6
27.02.2017 22:00:00 14,9 13,8 11 6 ENE 1018,0 6
27.02.2017 21:00:00 15,0 14,0 11 6 ENE - 6
27.02.2017 20:00:00 15,0 14,0 15 8 ENE - 6
27.02.2017 19:00:00 15,2 14,0 15 8 NE 1016,7 5
27.02.2017 18:00:00 15,0 14,0 15 8 NE - 5
27.02.2017 17:00:00 16,0 13,0 11 6 NE - 9
27.02.2017 16:00:00 16,6 13,2 18 10 ENE 1015,5 8
27.02.2017 15:00:00 16,0 14,0 18 10 ENE - 8
27.02.2017 14:00:00 17,0 14,0 18 10 NE - 8
27.02.2017 13:00:00 16,9 14,4 22 12 ENE 1015,0 6
27.02.2017 12:00:00 17,0 15,0 24 13 NE - 5
27.02.2017 11:00:00 16,0 14,0 28 15 NE - 5
27.02.2017 10:00:00 15,4 14,3 26 14 NE 1015,2 6
27.02.2017 09:00:00 15,0 13,0 28 15 N - 8
27.02.2017 08:00:00 14,0 13,0 34 18 N - 8
27.02.2017 07:00:00 13,8 12,4 29 16 N 1012,8 8
27.02.2017 06:00:00 14,0 12,0 29 16 N - 10
27.02.2017 05:00:00 13,0 12,0 29 16 N - 8
27.02.2017 04:00:00 14,1 11,7 29 16 N 1012,3 7
27.02.2017 03:00:00 14,0 12,0 24 13 N - 10
27.02.2017 02:00:00 14,0 12,0 24 13 N - 10
27.02.2017 01:00:00 13,0 12,5 16 9 NNO 1012,4 10
27.02.2017 00:00:00 13,0 12,0 16 9 NO - 10
26.02.2017 23:00:00 13,0 12,0 16 9 NNO - 10
26.02.2017 22:00:00 12,5 11,8 16 9 NNO 1013,7 10
26.02.2017 21:00:00 12,0 12,0 9 5 NO - 10
26.02.2017 20:00:00 13,0 12,0 22 12 N - 6
26.02.2017 19:00:00 14,4 11,4 21 11 NNE 1014,0 10
26.02.2017 18:00:00 15,0 12,0 16 9 NNE - 10
26.02.2017 17:00:00 15,0 12,0 16 9 NNE - 10
26.02.2017 16:00:00 16,4 10,1 16 9 NNE 1013,0 10
26.02.2017 15:00:00 17,0 11,0 16 9 NE - 10
26.02.2017 14:00:00 17,0 11,0 22 12 E - 10
26.02.2017 13:00:00 17,0 13,7 18 10 E 1013,7 9
26.02.2017 12:00:00 17,0 15,0 21 11 ENE - 6
26.02.2017 11:00:00 16,0 15,0 22 12 NE - 6
26.02.2017 10:00:00 15,3 14,3 22 12 NE 1014,1 6
26.02.2017 09:00:00 15,0 14,0 24 13 NE - 7
26.02.2017 08:00:00 15,0 14,0 21 11 NE - 6
26.02.2017 07:00:00 14,8 14,2 28 15 NE 1013,0 6
26.02.2017 06:00:00 15,0 14,0 21 11 NNE - 7
26.02.2017 05:00:00 15,0 13,0 22 12 NE - 8
26.02.2017 04:00:00 14,0 13,0 15 8 NNE - 10
26.02.2017 03:00:00 13,0 12,0 16 9 N - 10
26.02.2017 02:00:00 13,0 11,0 16 9 N - 10
26.02.2017 01:00:00 12,9 11,0 15 8 NNE 1014,3 10
26.02.2017 00:00:00 13,0 11,0 16 9 N - 10
25.02.2017 23:00:00 13,0 11,0 18 10 N - 10
25.02.2017 22:00:00 13,3 10,5 26 14 N 1015,3 10
25.02.2017 21:00:00 13,0 9,0 16 9 N - 10
25.02.2017 20:00:00 14,0 9,0 21 11 N - 10
25.02.2017 19:00:00 13,5 10,5 18 10 N 1013,7 10
25.02.2017 18:00:00 14,0 11,0 28 15 NNO - 10
25.02.2017 17:00:00 15,0 10,0 28 15 NNO - 10
25.02.2017 16:00:00 16,0 11,0 24 13 NNO - 10
25.02.2017 15:00:00 17,0 12,0 24 13 NNO - 10
25.02.2017 14:00:00 17,0 13,0 24 13 NNO - 10
25.02.2017 13:00:00 17,3 13,5 24 13 NO 1012,3 10
25.02.2017 12:00:00 17,0 14,0 26 14 NO - 7
25.02.2017 11:00:00 17,0 14,0 24 13 NO - 7
25.02.2017 10:00:00 16,8 14,4 28 15 NO 1012,0 7
25.02.2017 09:00:00 16,0 14,0 16 9 NNO - 7
25.02.2017 08:00:00 15,0 14,0 22 12 N - 6
25.02.2017 07:00:00 17,0 11,9 21 11 O 1009,4 7
25.02.2017 06:00:00 18,0 11,0 18 10 SO - 7
25.02.2017 05:00:00 17,0 12,0 15 8 SO - 7
25.02.2017 04:00:00 17,8 11,3 22 12 S 1009,2 8
25.02.2017 03:00:00 18,0 11,0 29 16 S - 8
25.02.2017 02:00:00 18,0 11,0 29 16 S - 8
25.02.2017 01:00:00 18,1 10,8 31 17 S 1011,2 8
25.02.2017 00:00:00 18,0 11,0 29 16 SSE - 8
24.02.2017 23:00:00 17,0 12,0 22 12 S - 8
24.02.2017 22:00:00 16,9 12,1 21 11 S 1013,5 10
24.02.2017 21:00:00 16,0 13,0 15 8 S - 10
24.02.2017 20:00:00 16,0 13,0 18 10 S - 10
24.02.2017 19:00:00 15,9 13,0 21 11 S 1014,3 10
24.02.2017 18:00:00 16,0 13,0 18 10 S - 10
24.02.2017 17:00:00 17,0 13,0 18 10 S - 10
24.02.2017 16:00:00 17,6 12,2 18 10 S 1014,3 10
24.02.2017 15:00:00 17,0 12,0 18 10 S - 10
24.02.2017 14:00:00 18,0 11,0 22 12 S - 10
24.02.2017 13:00:00 17,8 12,1 24 13 SSE 1016,6 10
24.02.2017 12:00:00 17,0 12,0 26 14 S - 10
24.02.2017 11:00:00 17,0 13,0 26 14 S - 10
24.02.2017 10:00:00 16,4 12,3 18 10 S 1018,4 10
24.02.2017 09:00:00 16,0 13,0 15 8 S - 10
24.02.2017 08:00:00 15,0 14,0 16 9 S - 10
24.02.2017 07:00:00 13,0 12,7 11 6 S 1018,2 10
24.02.2017 06:00:00 13,0 12,0 9 5 SSO - 10
24.02.2017 05:00:00 13,0 12,0 9 5 S - 10
24.02.2017 04:00:00 12,1 11,8 8 4 S 1018,9 10
24.02.2017 03:00:00 12,0 12,0 11 6 SSO - 10
24.02.2017 02:00:00 12,0 12,0 9 5 SO - 10
24.02.2017 01:00:00 12,4 12,0 11 6 SSO 1020,1 10
24.02.2017 00:00:00 12,0 12,0 9 5 SSO - 10
23.02.2017 23:00:00 11,0 10,0 5 3 S - 10
23.02.2017 22:00:00 12,1 10,8 5 3 SSO 1021,1 10
23.02.2017 21:00:00 12,0 11,0 9 5 SO - 10
23.02.2017 20:00:00 12,0 10,0 8 4 SO - 10
23.02.2017 19:00:00 12,8 9,6 8 4 - 1020,8 10
23.02.2017 18:00:00 13,0 9,0 8 4 OSO - 10
23.02.2017 17:00:00 15,0 10,0 8 4 O - 10
23.02.2017 16:00:00 15,9 10,1 9 5 OSO 1020,1 10
23.02.2017 15:00:00 16,0 11,0 11 6 O - 10
23.02.2017 14:00:00 17,0 11,0 9 5 O - 10
23.02.2017 13:00:00 16,8 10,8 13 7 OSO 1021,5 10
23.02.2017 12:00:00 17,0 11,0 13 7 OSO - 10
23.02.2017 11:00:00 16,0 10,0 9 5 NNO - 10
23.02.2017 10:00:00 15,1 9,4 8 4 ONO 1022,8 10
23.02.2017 09:00:00 14,0 10,0 11 6 O - 10
23.02.2017 08:00:00 14,0 11,0 8 4 O - 10
23.02.2017 07:00:00 10,8 9,1 9 5 O 1022,0 10
23.02.2017 06:00:00 11,0 9,0 9 5 O - 10
23.02.2017 05:00:00 11,0 9,0 8 4 O - 10
23.02.2017 04:00:00 12,0 9,6 11 6 ONO 1021,4 10
23.02.2017 03:00:00 13,0 10,0 15 8 ONO - 10
23.02.2017 02:00:00 13,0 11,0 15 8 OSO - 10
23.02.2017 01:00:00 13,4 11,1 15 8 OSO 1022,1 10
23.02.2017 00:00:00 13,0 11,0 15 8 OSO - 10
22.02.2017 23:00:00 13,0 10,0 13 7 OSO - 10
22.02.2017 22:00:00 12,4 9,5 13 7 OSO 1022,9 10
22.02.2017 21:00:00 12,0 9,0 9 5 O - 10
22.02.2017 20:00:00 12,0 9,0 9 5 OSO - 10
22.02.2017 19:00:00 13,0 9,4 9 5 O 1022,8 10
22.02.2017 18:00:00 13,0 9,0 9 5 O - 10
22.02.2017 17:00:00 14,0 9,0 13 7 O - 10
22.02.2017 16:00:00 14,9 9,2 18 10 O 1022,6 10
22.02.2017 15:00:00 15,0 9,0 16 9 O - 10
22.02.2017 14:00:00 15,0 9,0 15 8 ONO - 10
22.02.2017 13:00:00 15,1 8,7 16 9 O 1023,6 10
22.02.2017 12:00:00 16,0 9,0 16 9 O - 10
22.02.2017 11:00:00 15,0 9,0 15 8 ONO - 10
22.02.2017 10:00:00 14,9 9,2 15 8 ONO 1024,1 10
22.02.2017 09:00:00 14,0 9,0 15 8 ONO - 10
22.02.2017 08:00:00 12,0 8,0 8 4 ONO - 10
22.02.2017 07:00:00 9,6 6,8 9 5 O 1023,3 10
22.02.2017 06:00:00 10,0 7,0 13 7 ONO - 10
22.02.2017 05:00:00 10,0 7,0 11 6 O - 10
22.02.2017 04:00:00 9,6 5,6 13 7 O 1023,4 10
22.02.2017 03:00:00 9,0 6,0 11 6 O - 10
22.02.2017 02:00:00 10,0 6,0 13 7 O - 10
22.02.2017 01:00:00 9,9 5,8 9 5 O 1023,7 10
22.02.2017 00:00:00 10,0 5,0 9 5 O - 10
21.02.2017 23:00:00 9,0 5,0 9 5 O - 10

tt = Temperatura
td = dewpoint
ff = velocità del vento
dd = direzione del vento
ppp = reduced air pressure
vv = visibility

Stazioni seguenti

WeatherPro
AMSI
MeteoEarth